星链-11463 (STARLINK-11463)

导读

STARLINK-11463是美国太空探索技术公司SpaceX星链互联网星座的一员,于2024年11月24日发射入轨,星链项目旨在为全球提供高速低延迟互联网服务,该卫星继承星链设计理念,依托星座组网可覆盖偏远地区,补充全球网络覆盖。

基本信息
目录编号:
62066
目录名称:
STARLINK-11463
国际标识:
2024-217K
轨道中心:
EARTH
卫星名称:
星链-11463
卫星全名:
星链-11463 (STARLINK-11463)
卫星状态:
在轨 (已飞行611 天)
发射日期:
2024-11-24 UTC
国别 :
美国 (US)
星等 :
--
轨道信息
数据来源 国际轨道数据
星历时间: 2026-07-27T10:57:09+0800
21小时前
查看轨道信息
半长轴: 6737.685km
偏心率: 0.0000916
轨道倾角: 53.157°
近地点辐角 100.198°
升交点赤经 103.866°
平近点角 259.914°
近地点: 358.93km
远地点: 360.166km
周期: 91.733分钟
每日圈数: 15.697727
详细信息
固有亮度:
5
最大亮度:
2.5
卫星平台:
Starlink V1.0
覆盖范围:
全球
运营商:
太空探索技术公司
运营商所在国:
美国
制造商(研发单位):
太空探索技术公司
制造商所在国:
美国
使用方式:
暂无
卫星简介
Starlink 计划是 SpaceX 推出的全球卫星互联网项目,通过发射低轨道卫星,为全球尤其是偏远地区提供高速、低延迟的互联网服务。自 2019 年起,Starlink 已部署数千颗卫星,旨在缩小全球数字鸿沟,推动互联网普及。该项目还为军事、航空等行业提供通信支持,带来广泛经济效益。
2D轨道图
3D轨道图
轨道高度分析图
轨道倾角分析图
轨道综合分析图
查看轨道综合分析图